Regional Weather Roundup
Issued by NWS

Home | Current Version | Previous Version | Graphics & Text | Print | Product List | Glossary On
Versions: 1 2 3 4 5 6 7 8 9 10 11 12 13 14 15 16 17 18 19 20 21 22 23 24 25 26 27 28 29 30 31 32 33 34 35 36 37 38 39 40 41 42 43 44 45 46 47 48 49 50
000
ASUS43 KFSD 170210
RWRSD

WEATHER ROUNDUP FOR SOUTH DAKOTA
NATIONAL WEATHER SERVICE SIOUX FALLS SD
800 PM CST MON JAN 16 2017

NOTE: "FAIR" INDICATES FEW OR NO CLOUDS BELOW 12,000 FEET WITH NO
SIGNIFICANT WEATHER AND/OR OBSTRUCTIONS TO VISIBILITY.


SDZ001>005-009-010-012>017-170300-
NORTHWEST AND NORTH CENTRAL SOUTH DAKOTA

CITY           SKY/WX    TMP DP  RH WIND       PRES   REMARKS
BUFFALO          N/A     17   9  70 W7        30.00F WCI   8
FAITH            N/A     18  14  84 NW13      30.07F WCI   5
MOBRIDGE       CLOUDY    10   4  76 N5        30.04F WCI   2
$$

SDZ012>016-024>037-041>051-057-063-072>074-170300-
SOUTHWEST AND SOUTH CENTRAL SOUTH DAKOTA

CITY           SKY/WX    TMP DP  RH WIND       PRES   REMARKS
RAPID CTY ARPT CLOUDY    27  15  61 N16       30.08F WCI  15
PIERRE         CLOUDY    18  12  77 W6        30.08S WCI  10
CUSTER         CLOUDY    27   8  44 CALM      30.05S
ELLSWORTH AFB  CLOUDY    29  15  54 N14       30.07F WCI  18
PHILIP         CLEAR     19  13  77 W7        30.10S WCI  10
PINE RIDGE     CLOUDY    14  11  87 CALM      30.10S
SPEARFISH      FAIR      27  12  54 W7        30.08F WCI  19
WINNER         FAIR      17  12  80 NW6       30.08S WCI   9
$$

SDZ004>011-016>023-039-040-170300-
NORTHEAST SOUTH DAKOTA

CITY           SKY/WX    TMP DP  RH WIND       PRES   REMARKS
ABERDEEN       CLOUDY     5   2  87 NW6       30.07S WCI  -6
WATERTOWN      FOG       11   9  92 N7        30.00S VSB 1   WCI   0
BROOKINGS      CLOUDY    21  18  88 N5        29.98F WCI  15
SISSETON         N/A     14   9  80 CALM      30.03F
$$

SDZ017-020-022-023-036>040-048>070-170300-
SOUTHEAST SOUTH DAKOTA

CITY           SKY/WX    TMP DP  RH WIND       PRES   REMARKS
SIOUX FALLS    CLOUDY    31  27  85 N13       29.98S WCI  21
HURON          CLOUDY     9   6  88 NW9       30.05F WCI  -4
CHAMBERLAIN    CLOUDY    17  13  86 W7        30.07F WCI   7
MITCHELL       CLOUDY    17  12  80 NW10      30.06S WCI   5
YANKTON        CLOUDY    28  21  74 CALM      30.00S
$$

ABBREVIATIONS USED IN REMARKS
   TC - TEMPERATURE IN CELSIUS
  WCI - WIND CHILL INDEX
   HX - HEAT INDEX
  VSB - VISIBILITY





USA.gov is the U.S. government's official web portal to all federal, state and local government web resources and services.